GFSNIL_con_3kmhel_153.txt.gz
Helicity
16 0 -10 -9 -27 -57 -38 -27 -41 8 45 86 128 80 98 103 87 112 242 359 171 154
32 30 17 0 -22 -22 -23 -25 -68 -51 31 56 97 115 96 62 86 91 115 238 284 166
37 25 9 -1 3 -4 -1 -14 -60 -69 -48 6 46 102 85 59 72 78 76 92 267 190
36 28 14 -1 -2 -1 -1 12 -48 -76 -71 -34 12 90 87 62 100 117 72 88 86 227
39 30 25 20 10 -5 -2 7 4 -55 -79 -95 -66 27 104 49 42 163 193 93 97 156
51 38 27 18 12 8 9 6 11 -2 -28 -56 -51 -26 26 39 36 129 212 296 191 125
75 49 29 13 7 12 9 1 6 10 0 -38 -59 -85 -17 12 51 66 189 330 374 310
91 62 54 40 24 14 13 -3 -7 0 19 35 6 -55 -37 1 36 86 93 250 398 396
101 86 68 52 40 27 26 12 12 13 31 60 56 84 11 -26 -1 28 100 192 237 344
109 100 83 59 56 55 42 26 23 29 30 38 89 107 58 22 -34 -18 43 126 172 215
79 81 79 71 74 71 50 48 34 40 38 40 81 129 103 24 -10 -26 -9 38 128 190
27 46 49 53 63 60 51 48 43 27 44 69 92 166 163 77 6 15 10 10 19 50
-18 -1 -1 -2 6 -2 1 8 -1 18 29 53 56 138 148 102 34 46 30 32 31 91
-16 -4 -9 -26 -45 -47 -41 -38 -22 -19 -17 6 34 52 90 91 35 -12 -17 12 89 79

GFSNIL_con_3kmhel_156.txt.gz
Helicity
46 26 16 19 23 25 42 47 39 15 -7 3 5 16 58 70 102 125 109 94 14 59
51 53 44 37 38 32 30 39 43 35 18 5 9 -18 12 59 120 128 127 112 71 22
58 48 47 46 53 47 34 38 43 53 37 21 12 -27 -30 21 89 140 139 134 160 111
57 54 49 44 42 36 31 31 26 37 42 36 19 -19 -40 -5 46 123 136 153 162 166
70 71 71 69 63 38 31 24 19 18 37 44 36 1 -46 -30 12 66 113 117 138 163
108 109 102 86 68 51 43 40 35 26 28 39 43 31 -11 -52 -15 11 72 111 116 134
127 107 87 71 59 58 52 54 40 26 36 35 48 36 27 -39 -40 -0 36 117 111 136
96 95 88 76 71 66 59 50 45 37 40 61 56 39 35 15 -37 -45 29 107 196 166
90 75 68 73 72 67 69 51 49 50 43 61 57 100 61 39 5 -12 -17 62 135 227
52 49 58 66 74 75 71 62 56 49 55 70 86 116 84 48 42 53 31 7 56 131
24 17 21 41 58 57 53 56 51 51 58 51 76 156 127 48 44 40 73 53 37 57
13 -4 -9 -3 2 -1 1 5 11 14 36 59 79 161 170 82 40 39 61 49 59 73
-8 -12 -7 -8 -5 -4 -12 -20 -33 -23 -11 12 23 86 112 92 39 69 58 45 55 118
-26 -17 -19 -26 -31 -34 -22 -30 -27 -26 -15 -3 14 20 59 68 18 -7 -8 7 38 43

GFSNIL_con_3kmhel_159.txt.gz
Helicity
76 61 49 46 39 35 39 42 58 59 58 53 45 33 15 -5 -15 49 73 110 143 94
59 49 44 36 29 29 34 46 63 69 69 63 52 38 23 2 -13 49 49 71 67 74
49 48 44 41 49 60 64 76 81 85 77 71 58 42 29 4 3 52 37 30 77 62
57 56 53 61 79 83 85 101 102 94 83 80 69 50 38 17 8 23 42 27 51 60
68 68 78 100 110 104 112 110 104 103 100 98 88 70 55 30 6 -2 16 33 39 73
82 92 102 106 119 120 121 121 115 106 99 96 90 86 65 30 14 -5 -6 1 14 45
93 85 92 92 99 104 106 107 86 74 78 83 70 80 67 44 33 10 -8 -21 -7 25
80 72 80 79 74 81 79 80 79 63 63 83 61 66 65 44 30 38 26 7 -11 -7
75 70 58 60 63 69 66 63 58 56 53 87 58 118 90 49 22 40 58 69 60 42
48 53 58 39 27 36 48 53 50 40 49 54 78 136 117 68 34 44 64 94 102 66
57 57 29 14 9 0 2 7 4 12 23 19 49 112 123 81 40 50 74 80 105 100
43 30 15 10 3 -1 6 8 1 -5 1 14 24 79 102 65 24 41 52 61 79 106
16 9 8 2 -2 1 0 8 11 11 1 1 -5 37 54 47 18 27 22 18 33 77
-8 -1 1 6 13 14 25 28 24 21 19 -5 -1 -9 18 24 -10 -18 -12 -9 -1 -1

GFSNIL_con_3kmhel_165.txt.gz
Helicity
108 90 74 65 54 61 59 59 67 65 54 55 50 55 58 46 43 45 39 48 32 14
117 118 82 68 63 75 76 82 71 63 57 52 58 64 58 47 58 54 46 27 18 5
122 115 74 65 75 96 72 71 65 67 56 55 67 70 79 61 59 53 42 29 20 3
112 110 94 62 65 65 62 68 69 62 64 62 77 78 76 66 69 64 59 48 25 21
81 97 94 53 45 42 53 47 41 51 69 58 71 77 77 65 59 54 61 49 32 37
78 86 67 35 40 28 43 27 23 24 45 46 76 85 82 43 49 37 52 37 25 23
62 43 28 39 35 24 22 -2 2 18 8 10 44 59 64 36 38 37 54 56 13 32
40 33 20 27 16 17 17 -23 -29 7 -27 -14 23 34 53 21 13 24 34 44 41 29
51 42 33 42 41 39 18 -10 -8 29 -18 -13 6 25 23 4 -18 -18 -7 8 44 43
60 42 43 34 42 41 42 37 26 10 22 -15 1 26 14 10 -30 -47 -40 -2 22 41
41 36 22 32 34 30 33 40 44 42 41 40 34 -5 3 20 35 12 -24 -26 -7 11
30 17 23 23 26 38 48 55 57 52 45 31 24 -19 -22 -9 12 11 5 14 -15 -30
24 26 23 25 33 30 44 51 63 51 39 49 27 3 -13 0 30 29 32 31 36 -2
46 22 24 31 40 48 41 45 44 54 40 40 25 15 22 23 20 34 44 52 48 43

GFSNIL_con_3kmhel_168.txt.gz
Helicity
126 91 80 73 60 63 50 29 54 65 54 63 58 66 57 37 49 55 58 64 50 38
130 112 79 58 48 49 71 74 77 62 62 65 65 72 71 57 68 60 64 55 55 43
125 74 46 36 70 75 69 71 76 69 53 65 85 89 85 54 70 71 55 49 54 56
123 82 59 70 89 79 58 45 54 57 51 73 82 80 75 65 71 67 56 61 53 65
110 93 88 73 58 56 51 47 47 28 29 53 68 57 43 41 31 45 52 44 56 74
78 82 63 69 52 48 28 28 29 6 6 9 26 18 15 14 14 18 28 24 39 65
49 51 56 39 32 35 28 19 7 1 4 0 -5 2 1 7 4 -2 -4 -4 -18 1
38 31 39 31 40 29 35 28 23 -3 -4 -3 -5 -6 -2 3 -4 -8 -13 -8 -12 -15
33 30 34 26 25 37 33 17 29 12 11 14 10 20 34 33 17 7 5 8 13 10
57 48 32 28 29 13 21 24 19 22 24 50 67 26 35 45 76 62 62 -2 -10 0
57 37 32 28 14 18 25 39 35 32 34 40 53 46 49 50 78 69 53 51 34 -13
51 45 37 13 12 25 45 48 41 37 34 23 29 35 51 58 72 69 66 71 57 28
65 68 52 27 31 22 38 47 54 49 39 47 22 30 40 48 43 44 41 37 36 25
78 64 46 52 47 43 50 65 72 72 53 45 34 28 45 52 36 32 31 31 27 23

GFSNIL_con_3kmhel_171.txt.gz
Helicity
85 81 70 64 68 68 42 37 53 61 62 72 73 81 75 66 72 72 88 104 96 77
112 99 71 58 54 53 54 57 59 50 44 54 72 72 57 66 91 93 96 94 82 73
88 69 56 61 55 51 62 59 54 56 61 70 75 77 70 58 63 60 54 52 61 54
75 91 58 54 61 73 81 84 64 49 51 52 54 50 39 21 32 21 12 19 25 46
77 84 75 95 95 74 81 70 42 27 24 23 14 4 8 3 8 14 16 19 24 41
94 112 111 89 79 69 61 47 31 27 25 15 -5 -14 -7 -10 -7 -2 -3 -6 2 16
105 108 78 70 69 54 43 44 33 30 34 30 6 7 2 -4 -7 -10 -9 -12 -20 -8
99 72 63 62 43 38 39 26 24 30 32 38 30 36 31 27 12 10 1 -6 -12 -9
64 51 41 37 26 32 25 17 11 11 23 19 24 37 58 64 65 61 70 74 81 65
47 42 30 27 27 25 20 14 9 3 4 8 9 36 49 68 69 69 64 45 24 13
60 48 36 27 17 31 20 15 12 13 16 18 25 38 41 52 52 49 35 32 12 4
58 50 34 31 31 24 40 32 27 30 30 31 25 36 43 42 44 46 37 38 41 23
54 52 39 38 36 30 45 54 53 54 41 49 33 32 45 50 50 54 58 59 59 62
64 63 52 54 44 55 61 72 66 68 53 48 43 34 53 65 64 63 63 62 62 60